Location: Delettes
(50.6178°N, 2.2123°E)
Time: 16:50:13
(UTC+00:00)

STARLINK-1043 - Pass Details

Date: 27 February 2020
Orbit: 548 x 551 km, 53.0° (Epoch: 30 March)

Event Time Altitude Azimuth Distance (km) Brightness Sun altitude
Rises 19:39:29 0° 247° (WSW) 2,711 8.0 -21.5°
Reaches altitude 10° 19:41:42 10° 247° (WSW) 1,820 7.0 -21.8°
Maximum altitude 19:45:51 87° 160° (SSE) 555 3.5 -22.5°
Enters shadow 19:45:54 86° 123° (ESE) 556 3.4 -22.5°
